Year,Month,Day,Hour,Minute,Value (Times are PST for temperature in C)
2021,04,11,00,00,-0.70
2021,04,11,00,01,-0.80
2021,04,11,00,02,-0.80
2021,04,11,00,03,-0.80
2021,04,11,00,04,-0.80
2021,04,11,00,05,-0.80
2021,04,11,00,06,-0.80
2021,04,11,00,07,-0.80
2021,04,11,00,08,-0.80
2021,04,11,00,09,-0.80
2021,04,11,00,10,-0.80
2021,04,11,00,11,-0.80
2021,04,11,00,12,-0.80
2021,04,11,00,13,-0.80
2021,04,11,00,14,-0.80
2021,04,11,00,15,-0.80
2021,04,11,00,16,-0.80
2021,04,11,00,17,-0.80
2021,04,11,00,18,-0.80
2021,04,11,00,19,-0.90
2021,04,11,00,20,-0.90
2021,04,11,00,21,-0.90
2021,04,11,00,22,-0.90
2021,04,11,00,23,-0.90
2021,04,11,00,24,-0.90
2021,04,11,00,25,-0.90
2021,04,11,00,26,-1.00
2021,04,11,00,27,-1.00
2021,04,11,00,28,-1.00
2021,04,11,00,29,-1.00
2021,04,11,00,30,-1.00
2021,04,11,00,31,-1.00
2021,04,11,00,32,-1.10
2021,04,11,00,33,-1.10
2021,04,11,00,34,-1.10
2021,04,11,00,35,-1.10
2021,04,11,00,36,-1.10
2021,04,11,00,37,-1.10
2021,04,11,00,38,-1.10
2021,04,11,00,39,-1.20
2021,04,11,00,40,-1.20
2021,04,11,00,41,-1.20
2021,04,11,00,42,-1.20
2021,04,11,00,43,-1.20
2021,04,11,00,44,-1.20
2021,04,11,00,45,-1.20
2021,04,11,00,46,-1.20
2021,04,11,00,47,-1.20
2021,04,11,00,48,-1.20
2021,04,11,00,49,-1.20
2021,04,11,00,50,-1.20
2021,04,11,00,51,-1.20
2021,04,11,00,52,-1.30
2021,04,11,00,53,-1.30
2021,04,11,00,54,-1.30
2021,04,11,00,55,-1.30
2021,04,11,00,56,-1.30
2021,04,11,00,57,-1.30
2021,04,11,00,58,-1.30
2021,04,11,00,59,-1.30
2021,04,11,01,00,-1.30
2021,04,11,01,01,-1.30
2021,04,11,01,02,-1.30
2021,04,11,01,03,-1.30
2021,04,11,01,04,-1.30
2021,04,11,01,05,-1.30
2021,04,11,01,06,-1.30
2021,04,11,01,07,-1.30
2021,04,11,01,08,-1.30
2021,04,11,01,09,-1.30
2021,04,11,01,10,-1.30
2021,04,11,01,11,-1.30
2021,04,11,01,12,-1.30
2021,04,11,01,13,-1.30
2021,04,11,01,14,-1.30
2021,04,11,01,15,-1.30
2021,04,11,01,16,-1.20
2021,04,11,01,17,-1.20
2021,04,11,01,18,-1.20
2021,04,11,01,19,-1.20
2021,04,11,01,20,-1.20
2021,04,11,01,21,-1.20
2021,04,11,01,22,-1.20
2021,04,11,01,23,-1.20
2021,04,11,01,24,-1.20
2021,04,11,01,25,-1.20
2021,04,11,01,26,-1.20
2021,04,11,01,27,-1.20
2021,04,11,01,28,-1.20
2021,04,11,01,29,-1.30
2021,04,11,01,30,-1.30
2021,04,11,01,31,-1.30
2021,04,11,01,32,-1.30
2021,04,11,01,33,-1.30
2021,04,11,01,34,-1.30
2021,04,11,01,35,-1.30
2021,04,11,01,36,-1.30
2021,04,11,01,37,-1.30
2021,04,11,01,38,-1.30
2021,04,11,01,39,-1.40
2021,04,11,01,40,-1.40
2021,04,11,01,41,-1.40
2021,04,11,01,42,-1.40
2021,04,11,01,43,-1.40
2021,04,11,01,44,-1.40
2021,04,11,01,45,-1.40
2021,04,11,01,46,-1.40
2021,04,11,01,47,-1.40
2021,04,11,01,48,-1.40
2021,04,11,01,49,-1.40
2021,04,11,01,50,-1.50
2021,04,11,01,51,-1.50
2021,04,11,01,52,-1.50
2021,04,11,01,53,-1.50
2021,04,11,01,54,-1.50
2021,04,11,01,55,-1.50
2021,04,11,01,56,-1.40
2021,04,11,01,57,-1.40
2021,04,11,01,58,-1.40
2021,04,11,01,59,-1.40
2021,04,11,02,00,-1.50
2021,04,11,02,01,-1.50
2021,04,11,02,02,-1.50
2021,04,11,02,03,-1.50
2021,04,11,02,04,-1.50
2021,04,11,02,05,-1.50
2021,04,11,02,06,-1.50
2021,04,11,02,07,-1.60
2021,04,11,02,08,-1.60
2021,04,11,02,09,-1.60
2021,04,11,02,10,-1.60
2021,04,11,02,11,-1.60
2021,04,11,02,12,-1.60
2021,04,11,02,13,-1.60
2021,04,11,02,14,-1.60
2021,04,11,02,15,-1.60
2021,04,11,02,16,-1.60
2021,04,11,02,17,-1.60
2021,04,11,02,18,-1.60
2021,04,11,02,19,-1.60
2021,04,11,02,20,-1.60
2021,04,11,02,21,-1.60
2021,04,11,02,22,-1.60
2021,04,11,02,23,-1.70
2021,04,11,02,24,-1.70
2021,04,11,02,25,-1.70
2021,04,11,02,26,-1.70
2021,04,11,02,27,-1.70
2021,04,11,02,28,-1.70
2021,04,11,02,29,-1.70
2021,04,11,02,30,-1.70
2021,04,11,02,31,-1.70
2021,04,11,02,32,-1.70
2021,04,11,02,33,-1.80
2021,04,11,02,34,-1.80
2021,04,11,02,35,-1.80
2021,04,11,02,36,-1.70
2021,04,11,02,37,-1.70
2021,04,11,02,38,-1.70
2021,04,11,02,39,-1.70
2021,04,11,02,40,-1.70
2021,04,11,02,41,-1.70
2021,04,11,02,42,-1.70
2021,04,11,02,43,-1.70
2021,04,11,02,44,-1.70
2021,04,11,02,45,-1.80
2021,04,11,02,46,-1.80
2021,04,11,02,47,-1.80
2021,04,11,02,48,-1.80
2021,04,11,02,49,-1.80
2021,04,11,02,50,-1.80
2021,04,11,02,51,-1.80
2021,04,11,02,52,-1.80
2021,04,11,02,53,-1.80
2021,04,11,02,54,-1.80
2021,04,11,02,55,-1.80
2021,04,11,02,56,-1.80
2021,04,11,02,57,-1.80
2021,04,11,02,58,-1.80
2021,04,11,02,59,-1.80
2021,04,11,03,00,-1.80
2021,04,11,03,01,-1.90
2021,04,11,03,02,-1.90
2021,04,11,03,03,-1.90
2021,04,11,03,04,-1.90
2021,04,11,03,05,-1.90
2021,04,11,03,06,-1.90
2021,04,11,03,07,-1.90
2021,04,11,03,08,-1.90
2021,04,11,03,09,-1.90
2021,04,11,03,10,-1.90
2021,04,11,03,11,-2.00
2021,04,11,03,12,-2.00
2021,04,11,03,13,-2.00
2021,04,11,03,14,-2.00
2021,04,11,03,15,-2.00
2021,04,11,03,16,-2.00
2021,04,11,03,17,-2.10
2021,04,11,03,18,-2.10
2021,04,11,03,19,-2.10
2021,04,11,03,20,-2.10
2021,04,11,03,21,-2.10
2021,04,11,03,22,-2.10
2021,04,11,03,23,-2.10
2021,04,11,03,24,-2.10
2021,04,11,03,25,-2.10
2021,04,11,03,26,-2.20
2021,04,11,03,27,-2.20
2021,04,11,03,28,-2.20
2021,04,11,03,29,-2.20
2021,04,11,03,30,-2.20
2021,04,11,03,31,-2.20
2021,04,11,03,32,-2.20
2021,04,11,03,33,-2.20
2021,04,11,03,34,-2.20
2021,04,11,03,35,-2.20
2021,04,11,03,36,-2.20
2021,04,11,03,37,-2.20
2021,04,11,03,38,-2.20
2021,04,11,03,39,-2.20
2021,04,11,03,40,-2.20
2021,04,11,03,41,-2.20
2021,04,11,03,42,-2.10
2021,04,11,03,43,-2.10
2021,04,11,03,44,-2.10
2021,04,11,03,45,-2.10
2021,04,11,03,46,-2.10
2021,04,11,03,47,-2.10
2021,04,11,03,48,-2.10
2021,04,11,03,49,-2.10
2021,04,11,03,50,-2.10
2021,04,11,03,51,-2.10
2021,04,11,03,52,-2.10
2021,04,11,03,53,-2.10
2021,04,11,03,54,-2.10
2021,04,11,03,55,-2.10
2021,04,11,03,56,-2.10
2021,04,11,03,57,-2.10
2021,04,11,03,58,-2.10
2021,04,11,03,59,-2.10
2021,04,11,04,00,-2.10
2021,04,11,04,01,-2.00
2021,04,11,04,02,-2.00
2021,04,11,04,03,-2.00
2021,04,11,04,04,-2.00
2021,04,11,04,05,-2.10
2021,04,11,04,06,-2.10
2021,04,11,04,07,-2.10
2021,04,11,04,08,-2.10
2021,04,11,04,09,-2.10
2021,04,11,04,10,-2.10
2021,04,11,04,11,-2.10
2021,04,11,04,12,-2.10
2021,04,11,04,13,-2.20
2021,04,11,04,14,-2.20
2021,04,11,04,15,-2.20
2021,04,11,04,16,-2.20
2021,04,11,04,17,-2.20
2021,04,11,04,18,-2.20
2021,04,11,04,19,-2.20
2021,04,11,04,20,-2.20
2021,04,11,04,21,-2.20
2021,04,11,04,22,-2.20
2021,04,11,04,23,-2.20
2021,04,11,04,24,-2.20
2021,04,11,04,25,-2.20
2021,04,11,04,26,-2.20
2021,04,11,04,27,-2.20
2021,04,11,04,28,-2.20
2021,04,11,04,29,-2.20
2021,04,11,04,30,-2.20
2021,04,11,04,31,-2.20
2021,04,11,04,32,-2.20
2021,04,11,04,33,-2.20
2021,04,11,04,34,-2.20
2021,04,11,04,35,-2.20
2021,04,11,04,36,-2.20
2021,04,11,04,37,-2.20
2021,04,11,04,38,-2.20
2021,04,11,04,39,-2.20
2021,04,11,04,40,-2.20
2021,04,11,04,41,-2.20
2021,04,11,04,42,-2.20
2021,04,11,04,43,-2.20
2021,04,11,04,44,-2.20
2021,04,11,04,45,-2.20
2021,04,11,04,46,-2.20
2021,04,11,04,47,-2.20
2021,04,11,04,48,-2.20
2021,04,11,04,49,-2.20
2021,04,11,04,50,-2.30
2021,04,11,04,51,-2.30
2021,04,11,04,52,-2.30
2021,04,11,04,53,-2.30
2021,04,11,04,54,-2.30
2021,04,11,04,55,-2.30
2021,04,11,04,56,-2.30
2021,04,11,04,57,-2.30
2021,04,11,04,58,-2.30
2021,04,11,04,59,-2.30
2021,04,11,05,00,-2.30
2021,04,11,05,01,-2.30
2021,04,11,05,02,-2.30
2021,04,11,05,03,-2.30
2021,04,11,05,04,-2.30
2021,04,11,05,05,-2.40
2021,04,11,05,06,-2.40
2021,04,11,05,07,-2.40
2021,04,11,05,08,-2.40
2021,04,11,05,09,-2.40
2021,04,11,05,10,-2.40
2021,04,11,05,11,-2.40
2021,04,11,05,12,-2.40
2021,04,11,05,13,-2.40
2021,04,11,05,14,-2.40
2021,04,11,05,15,-2.40
2021,04,11,05,16,-2.40
2021,04,11,05,17,-2.40
2021,04,11,05,18,-2.40
2021,04,11,05,19,-2.40
2021,04,11,05,20,-2.40
2021,04,11,05,21,-2.40
2021,04,11,05,22,-2.40
2021,04,11,05,23,-2.40
2021,04,11,05,24,-2.40
2021,04,11,05,25,-2.50
2021,04,11,05,26,-2.50
2021,04,11,05,27,-2.50
2021,04,11,05,28,-2.50
2021,04,11,05,29,-2.50
2021,04,11,05,30,-2.50
2021,04,11,05,31,-2.60
2021,04,11,05,32,-2.60
2021,04,11,05,33,-2.60
2021,04,11,05,34,-2.60
2021,04,11,05,35,-2.60
2021,04,11,05,36,-2.60
2021,04,11,05,37,-2.60
2021,04,11,05,38,-2.60
2021,04,11,05,39,-2.60
2021,04,11,05,40,-2.70
2021,04,11,05,41,-2.70
2021,04,11,05,42,-2.70
2021,04,11,05,43,-2.70
2021,04,11,05,44,-2.70
2021,04,11,05,45,-2.70
2021,04,11,05,46,-2.70
2021,04,11,05,47,-2.70
2021,04,11,05,48,-2.70
2021,04,11,05,49,-2.80
2021,04,11,05,50,-2.80
2021,04,11,05,51,-2.80
2021,04,11,05,52,-2.80
2021,04,11,05,53,-2.80
2021,04,11,05,54,-2.80
2021,04,11,05,55,-2.80
2021,04,11,05,56,-2.80
2021,04,11,05,57,-2.80
2021,04,11,05,58,-2.80
2021,04,11,05,59,-2.80
2021,04,11,06,00,-2.80
2021,04,11,06,01,-2.80
2021,04,11,06,02,-2.80
2021,04,11,06,03,-2.80
2021,04,11,06,04,-2.80
2021,04,11,06,05,-2.80
2021,04,11,06,06,-2.80
2021,04,11,06,07,-2.80
2021,04,11,06,08,-2.80
2021,04,11,06,09,-2.80
2021,04,11,06,10,-2.80
2021,04,11,06,11,-2.80
2021,04,11,06,12,-2.80
2021,04,11,06,13,-2.80
2021,04,11,06,14,-2.80
2021,04,11,06,15,-2.80
2021,04,11,06,16,-2.90
2021,04,11,06,17,-2.90
2021,04,11,06,18,-2.90
2021,04,11,06,19,-2.90
2021,04,11,06,20,-2.90
2021,04,11,06,21,-2.90
2021,04,11,06,22,-2.90
2021,04,11,06,23,-2.90
2021,04,11,06,24,-2.90
2021,04,11,06,25,-2.90
2021,04,11,06,26,-2.90
2021,04,11,06,27,-2.90
2021,04,11,06,28,-2.90
2021,04,11,06,29,-2.90
2021,04,11,06,30,-2.80
2021,04,11,06,31,-2.80
2021,04,11,06,32,-2.80
2021,04,11,06,33,-2.80
2021,04,11,06,34,-2.80
2021,04,11,06,35,-2.80
2021,04,11,06,36,-2.80
2021,04,11,06,37,-2.80
2021,04,11,06,38,-2.80
2021,04,11,06,39,-2.80
2021,04,11,06,40,-2.80
2021,04,11,06,41,-2.80
2021,04,11,06,42,-2.80
2021,04,11,06,43,-2.80
2021,04,11,06,44,-2.80
2021,04,11,06,45,-2.80
2021,04,11,06,46,-2.80
2021,04,11,06,47,-2.80
2021,04,11,06,48,-2.80
2021,04,11,06,49,-2.80
2021,04,11,06,50,-2.80
2021,04,11,06,51,-2.80
2021,04,11,06,52,-2.80
2021,04,11,06,53,-2.80
2021,04,11,06,54,-2.80
2021,04,11,06,55,-2.80
2021,04,11,06,56,-2.80
2021,04,11,06,57,-2.80
2021,04,11,06,58,-2.80
2021,04,11,06,59,-2.80
2021,04,11,07,00,-2.90
2021,04,11,07,01,-2.90
2021,04,11,07,02,-2.90
2021,04,11,07,03,-2.80
2021,04,11,07,04,-2.90
2021,04,11,07,05,-2.80
2021,04,11,07,06,-2.80
2021,04,11,07,07,-2.80
2021,04,11,07,08,-2.80
2021,04,11,07,09,-2.80
2021,04,11,07,10,-2.80
2021,04,11,07,11,-2.80
2021,04,11,07,12,-2.80
2021,04,11,07,13,-2.80
2021,04,11,07,14,-2.80
2021,04,11,07,15,-2.80
2021,04,11,07,16,-2.80
2021,04,11,07,17,-2.80
2021,04,11,07,18,-2.80
2021,04,11,07,19,-2.80
2021,04,11,07,20,-2.80
2021,04,11,07,21,-2.80
2021,04,11,07,22,-2.80
2021,04,11,07,23,-2.80
2021,04,11,07,24,-2.80
2021,04,11,07,25,-2.80
2021,04,11,07,26,-2.80
2021,04,11,07,27,-2.80
2021,04,11,07,28,-2.80
2021,04,11,07,29,-2.80
2021,04,11,07,30,-2.80
2021,04,11,07,31,-2.80
2021,04,11,07,32,-2.70
2021,04,11,07,33,-2.70
2021,04,11,07,34,-2.70
2021,04,11,07,35,-2.70
2021,04,11,07,36,-2.70
2021,04,11,07,37,-2.70
2021,04,11,07,38,-2.70
2021,04,11,07,39,-2.70
2021,04,11,07,40,-2.70
2021,04,11,07,41,-2.70
2021,04,11,07,42,-2.70
2021,04,11,07,43,-2.60
2021,04,11,07,44,-2.60
2021,04,11,07,45,-2.60
2021,04,11,07,46,-2.60
2021,04,11,07,47,-2.60
2021,04,11,07,48,-2.60
2021,04,11,07,49,-2.60
2021,04,11,07,50,-2.60
2021,04,11,07,51,-2.60
2021,04,11,07,52,-2.60
2021,04,11,07,53,-2.60
2021,04,11,07,54,-2.60
2021,04,11,07,55,-2.60
2021,04,11,07,56,-2.50
2021,04,11,07,57,-2.50
2021,04,11,07,58,-2.50
2021,04,11,07,59,-2.50
2021,04,11,08,00,-2.50
2021,04,11,08,01,-2.40
2021,04,11,08,02,-2.40
2021,04,11,08,03,-2.40
2021,04,11,08,04,-2.40
2021,04,11,08,05,-2.40
2021,04,11,09,02,0.90
2021,04,11,09,03,0.90
2021,04,11,09,04,1.00
2021,04,11,09,05,1.00
2021,04,11,09,06,1.10
2021,04,11,09,07,1.10
2021,04,11,09,08,1.20
2021,04,11,09,09,1.20
2021,04,11,09,10,1.30
2021,04,11,09,11,1.30
2021,04,11,09,12,1.40
2021,04,11,09,13,1.50
2021,04,11,09,14,1.60
2021,04,11,09,15,1.60
2021,04,11,09,16,1.70
2021,04,11,09,17,1.70
2021,04,11,09,18,1.70
2021,04,11,09,19,1.80
2021,04,11,09,20,1.80
2021,04,11,09,21,1.90
2021,04,11,09,22,1.90
2021,04,11,09,23,1.90
2021,04,11,09,24,1.90
2021,04,11,09,25,1.90
2021,04,11,09,26,2.00
2021,04,11,09,27,2.00
2021,04,11,09,28,2.00
2021,04,11,09,29,2.10
2021,04,11,09,30,2.10
2021,04,11,09,31,2.10
2021,04,11,09,32,2.20
2021,04,11,09,33,2.20
2021,04,11,09,34,2.30
2021,04,11,09,35,2.30
2021,04,11,09,36,2.40
2021,04,11,09,37,2.50
2021,04,11,09,38,2.50
2021,04,11,09,39,2.60
2021,04,11,09,40,2.70
2021,04,11,09,41,2.80
2021,04,11,09,42,2.80
2021,04,11,09,43,2.90
2021,04,11,09,44,2.90
2021,04,11,09,45,3.00
2021,04,11,09,46,3.00
2021,04,11,09,47,3.10
2021,04,11,09,48,3.20
2021,04,11,09,49,3.30
2021,04,11,09,50,3.30
2021,04,11,09,51,3.30
2021,04,11,09,52,3.30
2021,04,11,09,53,3.30
2021,04,11,09,54,3.20
2021,04,11,09,55,3.20
2021,04,11,09,56,3.20
2021,04,11,09,57,3.20
2021,04,11,09,58,3.10
2021,04,11,09,59,3.10
2021,04,11,10,00,3.10
2021,04,11,10,01,3.10
2021,04,11,10,02,3.10
2021,04,11,10,03,3.10
2021,04,11,10,04,3.20
2021,04,11,10,05,3.20
2021,04,11,10,06,3.20
2021,04,11,10,07,3.20
2021,04,11,10,08,3.20
2021,04,11,10,09,3.20
2021,04,11,10,10,3.20
2021,04,11,10,11,3.20
2021,04,11,10,12,3.10
2021,04,11,10,13,3.20
2021,04,11,10,14,3.20
2021,04,11,10,15,3.20
2021,04,11,10,16,3.20
2021,04,11,10,17,3.30
2021,04,11,10,18,3.30
2021,04,11,10,19,3.40
2021,04,11,10,20,3.50
2021,04,11,10,21,3.50
2021,04,11,10,22,3.60
2021,04,11,10,23,3.70
2021,04,11,10,24,3.80
2021,04,11,10,25,3.80
2021,04,11,10,26,3.90
2021,04,11,10,27,3.90
2021,04,11,10,28,3.90
2021,04,11,10,29,4.00
2021,04,11,10,30,4.10
2021,04,11,10,31,4.10
2021,04,11,10,32,4.10
2021,04,11,10,33,4.20
2021,04,11,10,34,4.30
2021,04,11,10,35,4.30
2021,04,11,10,36,4.30
2021,04,11,10,37,4.40
2021,04,11,10,38,4.40
2021,04,11,10,39,4.40
2021,04,11,10,40,4.40
2021,04,11,10,41,4.40
2021,04,11,10,42,4.50
2021,04,11,10,43,4.60
2021,04,11,10,44,4.60
2021,04,11,10,45,4.70
2021,04,11,10,46,4.70
2021,04,11,10,47,4.70
2021,04,11,10,48,4.80
2021,04,11,10,49,4.90
2021,04,11,10,50,4.90
2021,04,11,10,51,5.00
2021,04,11,10,52,5.00
2021,04,11,10,53,5.10
2021,04,11,10,54,5.10
2021,04,11,10,55,5.30
2021,04,11,10,56,5.40
2021,04,11,10,57,5.50
2021,04,11,10,58,5.60
2021,04,11,10,59,5.60
2021,04,11,11,00,5.60
2021,04,11,11,01,5.60
2021,04,11,11,02,5.70
2021,04,11,11,03,5.70
2021,04,11,11,04,5.80
2021,04,11,11,05,5.90
2021,04,11,11,06,5.90
2021,04,11,11,07,5.90
2021,04,11,11,08,5.90
2021,04,11,11,09,5.90
2021,04,11,11,10,5.90
2021,04,11,11,11,6.00
2021,04,11,11,12,6.00
2021,04,11,11,13,6.10
2021,04,11,11,14,6.10
2021,04,11,11,15,6.20
2021,04,11,11,16,6.30
2021,04,11,11,17,6.40
2021,04,11,11,18,6.40
2021,04,11,11,19,6.50
2021,04,11,11,20,6.50
2021,04,11,11,21,6.60
2021,04,11,11,22,6.60
2021,04,11,11,23,6.60
2021,04,11,11,24,6.60
2021,04,11,11,25,6.60
2021,04,11,11,26,6.60
2021,04,11,11,27,6.60
2021,04,11,11,28,6.60
2021,04,11,11,29,6.70
2021,04,11,11,30,6.70
2021,04,11,11,31,6.80
2021,04,11,11,32,6.80
2021,04,11,11,33,6.90
2021,04,11,11,34,6.90
2021,04,11,11,35,7.00
2021,04,11,11,36,7.10
2021,04,11,11,37,7.20
2021,04,11,11,38,7.30
2021,04,11,11,39,7.30
2021,04,11,11,40,7.30
2021,04,11,11,41,7.30
2021,04,11,11,42,7.30
2021,04,11,11,43,7.40
2021,04,11,11,44,7.40
2021,04,11,11,45,7.50
2021,04,11,11,46,7.60
2021,04,11,11,47,7.70
2021,04,11,11,48,7.80
2021,04,11,11,49,7.80
2021,04,11,11,50,7.90
2021,04,11,11,51,7.90
2021,04,11,11,52,8.00
2021,04,11,11,53,8.00
2021,04,11,11,54,8.00
2021,04,11,11,55,7.90
2021,04,11,11,56,7.80
2021,04,11,11,57,7.70
2021,04,11,11,58,7.60
2021,04,11,11,59,7.50
2021,04,11,12,00,7.40
2021,04,11,12,01,7.40
2021,04,11,12,02,7.30
2021,04,11,12,03,7.30
2021,04,11,12,04,7.40
2021,04,11,12,05,7.50
2021,04,11,12,06,7.60
2021,04,11,12,07,7.70
2021,04,11,12,08,7.70
2021,04,11,12,09,7.70
2021,04,11,12,10,7.80
2021,04,11,12,11,7.80
2021,04,11,12,12,7.80
2021,04,11,12,13,7.90
2021,04,11,12,14,8.00
2021,04,11,12,15,8.10
2021,04,11,12,16,8.10
2021,04,11,12,17,8.10
2021,04,11,12,18,8.10
2021,04,11,12,19,8.20
2021,04,11,12,20,8.20
2021,04,11,12,21,8.20
2021,04,11,12,22,8.30
2021,04,11,12,23,8.30
2021,04,11,12,24,8.30
2021,04,11,12,25,8.40
2021,04,11,12,26,8.40
2021,04,11,12,27,8.40
2021,04,11,12,28,8.40
2021,04,11,12,29,8.40
2021,04,11,12,30,8.40
2021,04,11,12,31,8.40
2021,04,11,12,32,8.40
2021,04,11,12,33,8.50
2021,04,11,12,34,8.60
2021,04,11,12,35,8.60
2021,04,11,12,36,8.70
2021,04,11,12,37,8.70
2021,04,11,12,38,8.70
2021,04,11,12,39,8.60
2021,04,11,12,40,8.70
2021,04,11,12,41,8.60
2021,04,11,12,42,8.70
2021,04,11,12,43,8.70
2021,04,11,12,44,8.70
2021,04,11,12,45,8.80
2021,04,11,12,46,8.80
2021,04,11,12,47,8.90
2021,04,11,12,48,9.00
2021,04,11,12,49,9.10
2021,04,11,12,50,9.20
2021,04,11,12,51,9.30
2021,04,11,12,52,9.30
2021,04,11,12,53,9.30
2021,04,11,12,54,9.30
2021,04,11,12,55,9.20
2021,04,11,12,56,9.10
2021,04,11,12,57,9.10
2021,04,11,12,58,9.10
2021,04,11,12,59,9.20
2021,04,11,13,00,9.20
2021,04,11,13,01,9.20
2021,04,11,13,02,9.20
2021,04,11,13,03,9.30
2021,04,11,13,04,9.30
2021,04,11,13,05,9.40
2021,04,11,13,06,9.50
2021,04,11,13,07,9.50
2021,04,11,13,08,9.60
2021,04,11,13,09,9.60
2021,04,11,13,10,9.60
2021,04,11,13,11,9.60
2021,04,11,13,12,9.60
2021,04,11,13,13,9.60
2021,04,11,13,14,9.60
2021,04,11,13,15,9.60
2021,04,11,13,16,9.70
2021,04,11,13,17,9.60
2021,04,11,13,18,9.60
2021,04,11,13,19,9.50
2021,04,11,13,20,9.50
2021,04,11,13,21,9.50
2021,04,11,13,22,9.60
2021,04,11,13,23,9.70
2021,04,11,13,24,9.70
2021,04,11,13,25,9.80
2021,04,11,13,26,9.90
2021,04,11,13,27,10.00
2021,04,11,13,28,10.20
2021,04,11,13,29,10.30
2021,04,11,13,30,10.40
2021,04,11,13,31,10.50
2021,04,11,13,32,10.60
2021,04,11,13,33,10.70
2021,04,11,13,34,10.70
2021,04,11,13,35,10.60
2021,04,11,13,36,10.40
2021,04,11,13,37,10.40
2021,04,11,13,38,10.30
2021,04,11,13,39,10.30
2021,04,11,13,40,10.20
2021,04,11,13,41,10.20
2021,04,11,13,42,10.20
2021,04,11,13,43,10.10
2021,04,11,13,44,10.10
2021,04,11,13,45,10.00
2021,04,11,13,46,10.00
2021,04,11,13,47,10.00
2021,04,11,13,48,10.10
2021,04,11,13,49,10.30
2021,04,11,13,50,10.40
2021,04,11,13,51,10.40
2021,04,11,13,52,10.30
2021,04,11,13,53,10.30
2021,04,11,13,54,10.20
2021,04,11,13,55,10.20
2021,04,11,13,56,10.20
2021,04,11,13,57,10.30
2021,04,11,13,58,10.30
2021,04,11,13,59,10.30
2021,04,11,14,00,10.40
2021,04,11,14,01,10.40
2021,04,11,14,02,10.40
2021,04,11,14,03,10.40
2021,04,11,14,04,10.40
2021,04,11,14,05,10.50
2021,04,11,14,06,10.50
2021,04,11,14,07,10.40
2021,04,11,14,08,10.40
2021,04,11,14,09,10.40
2021,04,11,14,10,10.40
2021,04,11,14,11,10.50
2021,04,11,14,12,10.50
2021,04,11,14,13,10.40
2021,04,11,14,14,10.40
2021,04,11,14,15,10.40
2021,04,11,14,16,10.40
2021,04,11,14,17,10.50
2021,04,11,14,18,10.60
2021,04,11,14,19,10.70
2021,04,11,14,20,10.70
2021,04,11,14,21,10.70
2021,04,11,14,22,10.70
2021,04,11,14,23,10.60
2021,04,11,14,24,10.50
2021,04,11,14,25,10.40
2021,04,11,14,26,10.50
2021,04,11,14,27,10.50
2021,04,11,14,28,10.40
2021,04,11,14,29,10.40
2021,04,11,14,30,10.40
2021,04,11,14,31,10.50
2021,04,11,14,32,10.60
2021,04,11,14,33,10.60
2021,04,11,14,34,10.60
2021,04,11,14,35,10.70
2021,04,11,14,36,10.70
2021,04,11,14,37,10.80
2021,04,11,14,38,10.80
2021,04,11,14,39,10.80
2021,04,11,14,40,10.90
2021,04,11,14,41,10.90
2021,04,11,14,42,11.00
2021,04,11,14,43,11.10
2021,04,11,14,44,11.10
2021,04,11,14,45,11.10
2021,04,11,14,46,11.10
2021,04,11,14,47,11.20
2021,04,11,14,48,11.30
2021,04,11,14,49,11.30
2021,04,11,14,50,11.40
2021,04,11,14,51,11.40
2021,04,11,14,52,11.40
2021,04,11,14,53,11.40
2021,04,11,14,54,11.30
2021,04,11,14,55,11.20
2021,04,11,14,56,11.20
2021,04,11,14,57,11.10
2021,04,11,14,58,11.10
2021,04,11,14,59,11.10
2021,04,11,15,00,11.20
2021,04,11,15,01,11.20
2021,04,11,15,02,11.30
2021,04,11,15,03,11.30
2021,04,11,15,04,11.30
2021,04,11,15,05,11.40
2021,04,11,15,06,11.60
2021,04,11,15,07,11.80
2021,04,11,15,08,11.80
2021,04,11,15,09,11.80
2021,04,11,15,10,11.70
2021,04,11,15,11,11.70
2021,04,11,15,12,11.70
2021,04,11,15,13,11.60
2021,04,11,15,14,11.60
2021,04,11,15,15,11.60
2021,04,11,15,16,11.60
2021,04,11,15,17,11.60
2021,04,11,15,18,11.60
2021,04,11,15,19,11.60
2021,04,11,15,20,11.60
2021,04,11,15,21,11.60
2021,04,11,15,22,11.50
2021,04,11,15,23,11.50
2021,04,11,15,24,11.40
2021,04,11,15,25,11.40
2021,04,11,15,26,11.50
2021,04,11,15,27,11.50
2021,04,11,15,28,11.50
2021,04,11,15,29,11.50
2021,04,11,15,30,11.50
2021,04,11,15,31,11.50
2021,04,11,15,32,11.60
2021,04,11,15,33,11.70
2021,04,11,15,34,11.70
2021,04,11,15,35,11.70
2021,04,11,15,36,11.70
2021,04,11,15,37,11.60
2021,04,11,15,38,11.60
2021,04,11,15,39,11.60
2021,04,11,15,40,11.60
2021,04,11,15,41,11.60
2021,04,11,15,42,11.60
2021,04,11,15,43,11.60
2021,04,11,15,44,11.70
2021,04,11,15,45,11.80
2021,04,11,15,46,11.90
2021,04,11,15,47,11.90
2021,04,11,15,48,11.90
2021,04,11,15,49,12.00
2021,04,11,15,50,12.00
2021,04,11,15,51,12.00
2021,04,11,15,52,12.00
2021,04,11,15,53,11.90
2021,04,11,15,54,11.90
2021,04,11,15,55,11.90
2021,04,11,15,56,11.90
2021,04,11,15,57,11.90
2021,04,11,15,58,11.90
2021,04,11,15,59,11.90
2021,04,11,16,00,11.80
2021,04,11,16,01,11.80
2021,04,11,16,02,11.90
2021,04,11,16,03,11.90
2021,04,11,16,04,11.90
2021,04,11,16,05,12.00
2021,04,11,16,06,12.00
2021,04,11,16,07,12.00
2021,04,11,16,08,12.00
2021,04,11,16,09,12.10
2021,04,11,16,10,12.10
2021,04,11,16,11,12.10
2021,04,11,16,12,12.10
2021,04,11,16,13,12.10
2021,04,11,16,14,12.10
2021,04,11,16,15,12.20
2021,04,11,16,16,12.20
2021,04,11,16,17,12.30
2021,04,11,16,18,12.30
2021,04,11,16,19,12.30
2021,04,11,16,20,12.30
2021,04,11,16,21,12.30
2021,04,11,16,22,12.30
2021,04,11,16,23,12.30
2021,04,11,16,24,12.20
2021,04,11,16,25,12.10
2021,04,11,16,26,12.10
2021,04,11,16,27,12.10
2021,04,11,16,28,12.00
2021,04,11,16,29,12.10
2021,04,11,16,30,12.10
2021,04,11,16,31,12.20
2021,04,11,16,32,12.20
2021,04,11,16,33,12.20
2021,04,11,16,34,12.10
2021,04,11,16,35,12.10
2021,04,11,16,36,12.10
2021,04,11,16,37,12.20
2021,04,11,16,38,12.30
2021,04,11,16,39,12.30
2021,04,11,16,40,12.40
2021,04,11,16,41,12.40
2021,04,11,16,42,12.30
2021,04,11,16,43,12.30
2021,04,11,16,44,12.30
2021,04,11,16,45,12.20
2021,04,11,16,46,12.10
2021,04,11,16,47,12.00
2021,04,11,16,48,11.90
2021,04,11,16,49,11.80
2021,04,11,16,50,11.80
2021,04,11,16,51,11.80
2021,04,11,16,52,11.80
2021,04,11,16,53,11.90
2021,04,11,16,54,11.80
2021,04,11,16,55,11.80
2021,04,11,16,56,11.80
2021,04,11,16,57,11.80
2021,04,11,16,58,11.80
2021,04,11,16,59,11.80
2021,04,11,17,00,11.90
2021,04,11,17,01,11.90
2021,04,11,17,02,12.00
2021,04,11,17,03,12.00
2021,04,11,17,04,11.90
2021,04,11,17,05,11.90
2021,04,11,17,06,11.90
2021,04,11,17,07,11.90
2021,04,11,17,08,11.90
2021,04,11,17,09,11.90
2021,04,11,17,10,11.90
2021,04,11,17,11,12.00
2021,04,11,17,12,12.00
2021,04,11,17,13,12.00
2021,04,11,17,14,12.00
2021,04,11,17,15,12.10
2021,04,11,17,16,12.20
2021,04,11,17,17,12.30
2021,04,11,17,18,12.30
2021,04,11,17,19,12.30
2021,04,11,17,20,12.30
2021,04,11,17,21,12.40
2021,04,11,17,22,12.40
2021,04,11,17,23,12.40
2021,04,11,17,24,12.40
2021,04,11,17,25,12.40
2021,04,11,17,26,12.40
2021,04,11,17,27,12.40
2021,04,11,17,28,12.40
2021,04,11,17,29,12.40
2021,04,11,17,30,12.30
2021,04,11,17,31,12.30
2021,04,11,17,32,12.30
2021,04,11,17,33,12.20
2021,04,11,17,34,12.30
2021,04,11,17,35,12.30
2021,04,11,17,36,12.30
2021,04,11,17,37,12.30
2021,04,11,17,38,12.30
2021,04,11,17,39,12.30
2021,04,11,17,40,12.30
2021,04,11,17,41,12.30
2021,04,11,17,42,12.30
2021,04,11,17,43,12.30
2021,04,11,17,44,12.30
2021,04,11,17,45,12.30
2021,04,11,17,46,12.30
2021,04,11,17,47,12.30
2021,04,11,17,48,12.30
2021,04,11,17,49,12.30
2021,04,11,17,50,12.30
2021,04,11,17,51,12.30
2021,04,11,17,52,12.40
2021,04,11,17,53,12.40
2021,04,11,17,54,12.30
2021,04,11,17,55,12.30
2021,04,11,17,56,12.30
2021,04,11,17,57,12.30
2021,04,11,17,58,12.30
2021,04,11,17,59,12.30
2021,04,11,18,00,12.30
2021,04,11,18,01,12.20
2021,04,11,18,02,12.20
2021,04,11,18,03,12.10
2021,04,11,18,04,12.10
2021,04,11,18,05,12.10
2021,04,11,18,06,12.10
2021,04,11,18,07,12.10
2021,04,11,18,08,12.20
2021,04,11,18,09,12.20
2021,04,11,18,10,12.20
2021,04,11,18,11,12.20
2021,04,11,18,12,12.10
2021,04,11,18,13,12.10
2021,04,11,18,14,12.00
2021,04,11,18,15,12.00
2021,04,11,18,16,12.00
2021,04,11,18,17,12.00
2021,04,11,18,18,12.00
2021,04,11,18,19,12.00
2021,04,11,18,20,12.10
2021,04,11,18,21,12.10
2021,04,11,18,22,12.00
2021,04,11,18,23,12.10
2021,04,11,18,24,12.10
2021,04,11,18,25,12.10
2021,04,11,18,26,12.20